FDX11T YBRM-YPDN

Flight info

Callsign FDX11T
Flight time 1h 58m
Altitude 35000
Route BRM J93 CIN J151 HELLI DCT WANGI
Aircraft MD11/H-SDE1E2E3FGHIJ2J3J4J5M1RWXY/LB1D1

Departure

Time 2026-04-24 13:36
Airport Broome International Airport (YBRM)

Arrival

Time 2026-04-24 15:35
Airport Darwin International Airport / RAAF Darwin (YPDN)
Time Latitude Longitude Altitude Speed Heading
2026-04-24 13:03 -17.95325 122.23246 50 ft 0 kts 193°
2026-04-24 13:10 -17.95325 122.23247 50 ft 0 kts 193°
2026-04-24 13:15 -17.95324 122.23247 50 ft 0 kts 193°
2026-04-24 13:20 -17.95312 122.23250 50 ft 4 kts 193°
2026-04-24 13:20 -17.95285 122.23256 49 ft 4 kts 193°
2026-04-24 13:20 -17.95284 122.23256 49 ft 0 kts 193°
2026-04-24 13:29 -17.95284 122.23257 50 ft 0 kts 193°
2026-04-24 13:31 -17.95292 122.23257 47 ft 2 kts 175°
2026-04-24 13:31 -17.95306 122.23276 50 ft 4 kts 120°
2026-04-24 13:32 -17.95300 122.23296 49 ft 1 kts 48°
2026-04-24 13:32 -17.95292 122.23297 49 ft 2 kts 18°
2026-04-24 13:32 -17.95254 122.23311 49 ft 9 kts 21°
2026-04-24 13:32 -17.95179 122.23347 49 ft 14 kts 35°
2026-04-24 13:33 -17.95097 122.23380 48 ft 9 kts 14°
2026-04-24 13:33 -17.95066 122.23395 47 ft 1 kts 49°
2026-04-24 13:33 -17.95063 122.23414 47 ft 4 kts 81°
2026-04-24 13:33 -17.95073 122.23470 43 ft 13 kts 106°
2026-04-24 13:34 -17.95105 122.23595 44 ft 21 kts 105°
2026-04-24 13:34 -17.95120 122.23714 43 ft 15 kts 88°
2026-04-24 13:34 -17.95132 122.23762 41 ft 2 kts 145°
2026-04-24 13:34 -17.95141 122.23760 41 ft 2 kts 184°
2026-04-24 13:35 -17.95147 122.23750 42 ft 2 kts 243°
2026-04-24 13:35 -17.95144 122.23737 43 ft 2 kts 283°
2026-04-24 13:35 -17.95143 122.23733 43 ft 0 kts 283°
2026-04-24 13:35 -17.95139 122.23718 38 ft 15 kts 284°
2026-04-24 13:36 -17.95024 122.23286 48 ft 107 kts 285°
2026-04-24 13:36 -17.94745 122.22266 93 ft 175 kts 283°
2026-04-24 13:36 -17.94412 122.21012 762 ft 178 kts 282°
2026-04-24 13:36 -17.94124 122.19705 1567 ft 189 kts 286°
2026-04-24 13:37 -17.93306 122.18569 2299 ft 207 kts 325°
2026-04-24 13:37 -17.91909 122.18081 2968 ft 219 kts
2026-04-24 13:37 -17.90493 122.18547 3670 ft 214 kts 45°
2026-04-24 13:37 -17.89839 122.19888 4241 ft 217 kts 83°
2026-04-24 13:38 -17.89825 122.21606 4202 ft 244 kts 95°
2026-04-24 13:38 -17.89973 122.23443 4607 ft 264 kts 99°
2026-04-24 13:38 -17.90267 122.25437 4888 ft 287 kts 99°
2026-04-24 13:38 -17.90558 122.27545 5679 ft 295 kts 97°
2026-04-24 13:39 -17.90751 122.29721 6465 ft 302 kts 99°
2026-04-24 13:39 -17.91075 122.31912 7420 ft 291 kts 97°
2026-04-24 13:39 -17.91254 122.33844 9538 ft 245 kts 94°
2026-04-24 13:39 -17.91172 122.35529 10915 ft 230 kts 85°
2026-04-24 13:40 -17.91061 122.37293 11080 ft 258 kts 88°
2026-04-24 13:40 -17.90954 122.39278 11231 ft 286 kts 86°
2026-04-24 13:40 -17.90746 122.41456 11362 ft 314 kts 83°
2026-04-24 13:40 -17.90425 122.43820 11493 ft 340 kts 81°
2026-04-24 13:41 -17.90002 122.46343 11763 ft 359 kts 79°
2026-04-24 13:41 -17.89508 122.48939 12464 ft 366 kts 78°
2026-04-24 13:41 -17.88972 122.51574 13151 ft 373 kts 77°
2026-04-24 13:41 -17.88403 122.54258 13840 ft 380 kts 76°
2026-04-24 13:42 -17.87814 122.56979 14448 ft 385 kts 76°
2026-04-24 13:42 -17.87211 122.59734 15108 ft 389 kts 76°
2026-04-24 13:42 -17.86598 122.62522 15746 ft 394 kts 76°
2026-04-24 13:42 -17.85977 122.65337 16401 ft 398 kts 76°
2026-04-24 13:43 -17.85357 122.68144 17025 ft 402 kts 76°
2026-04-24 13:43 -17.84721 122.71023 17650 ft 407 kts 76°
2026-04-24 13:43 -17.84078 122.73929 18273 ft 411 kts 76°
2026-04-24 13:43 -17.83426 122.76874 18811 ft 416 kts 76°
2026-04-24 13:44 -17.82770 122.79841 19330 ft 420 kts 76°
2026-04-24 13:44 -17.82105 122.82838 19855 ft 424 kts 76°
2026-04-24 13:44 -17.81433 122.85870 20367 ft 428 kts 76°
2026-04-24 13:44 -17.80754 122.88932 20878 ft 433 kts 76°
2026-04-24 13:45 -17.80068 122.92019 21399 ft 437 kts 76°
2026-04-24 13:45 -17.79376 122.95134 21908 ft 441 kts 76°
2026-04-24 13:45 -17.78676 122.98283 22414 ft 445 kts 75°
2026-04-24 13:45 -17.77969 123.01458 22912 ft 449 kts 75°
2026-04-24 13:46 -17.77255 123.04663 23403 ft 453 kts 75°
2026-04-24 13:46 -17.76532 123.07900 23853 ft 457 kts 75°
2026-04-24 13:46 -17.75799 123.11161 24273 ft 461 kts 75°
2026-04-24 13:46 -17.75060 123.14441 24682 ft 464 kts 75°
2026-04-24 13:47 -17.74317 123.17750 25093 ft 468 kts 75°
2026-04-24 13:47 -17.73569 123.21086 25494 ft 471 kts 75°
2026-04-24 13:47 -17.72814 123.24452 25889 ft 475 kts 75°
2026-04-24 13:47 -17.72056 123.27835 26290 ft 479 kts 75°
2026-04-24 13:48 -17.71292 123.31241 26686 ft 482 kts 75°
2026-04-24 13:48 -17.70530 123.34636 27057 ft 485 kts 74°
2026-04-24 13:48 -17.69754 123.38092 27435 ft 489 kts 74°
2026-04-24 13:48 -17.68971 123.41574 27799 ft 492 kts 74°
2026-04-24 13:49 -17.68182 123.45079 28160 ft 496 kts 74°
2026-04-24 13:49 -17.67386 123.48613 28521 ft 499 kts 74°
2026-04-24 13:49 -17.66586 123.52162 28876 ft 502 kts 74°
2026-04-24 13:49 -17.65779 123.55736 29225 ft 505 kts 74°
2026-04-24 13:50 -17.64967 123.59334 29572 ft 509 kts 74°
2026-04-24 13:50 -17.64149 123.62950 29937 ft 512 kts 73°
2026-04-24 13:50 -17.63326 123.66591 30349 ft 512 kts 73°
2026-04-24 13:50 -17.62503 123.70229 30786 ft 512 kts 74°
2026-04-24 13:51 -17.61959 123.72630 31078 ft 512 kts 73°
2026-04-24 13:51 -17.61137 123.76258 31524 ft 511 kts 73°
2026-04-24 13:51 -17.60313 123.79872 31963 ft 509 kts 73°
2026-04-24 13:51 -17.59254 123.83395 32366 ft 504 kts 63°
2026-04-24 13:52 -17.57652 123.86635 32800 ft 498 kts 53°
2026-04-24 13:52 -17.55683 123.89599 33197 ft 495 kts 49°
2026-04-24 13:52 -17.53573 123.92437 33595 ft 493 kts 47°
2026-04-24 13:52 -17.51441 123.95252 33981 ft 493 kts 47°
2026-04-24 13:53 -17.49336 123.98088 34320 ft 493 kts 49°
2026-04-24 13:53 -17.47271 124.00945 34648 ft 492 kts 50°
2026-04-24 13:53 -17.45232 124.03827 34910 ft 493 kts 50°
2026-04-24 13:53 -17.43200 124.06733 34993 ft 496 kts 50°
2026-04-24 13:54 -17.39150 124.12570 35016 ft 494 kts 50°
2026-04-24 13:54 -17.35115 124.18379 35016 ft 493 kts 50°
2026-04-24 13:55 -17.31080 124.24171 35020 ft 492 kts 50°
2026-04-24 13:55 -17.27064 124.29927 35021 ft 492 kts 50°
2026-04-24 13:56 -17.23025 124.35712 35018 ft 493 kts 50°
2026-04-24 13:56 -17.18980 124.41499 35019 ft 493 kts 50°
2026-04-24 13:57 -17.14936 124.47281 35023 ft 493 kts 50°
2026-04-24 13:57 -17.10891 124.53059 35027 ft 492 kts 50°
2026-04-24 13:58 -17.06839 124.58830 35025 ft 492 kts 50°
2026-04-24 13:58 -17.02795 124.64583 35034 ft 491 kts 50°
2026-04-24 13:59 -16.98748 124.70346 35032 ft 491 kts 50°
2026-04-24 13:59 -16.94704 124.76104 35039 ft 491 kts 50°
2026-04-24 14:00 -16.90685 124.81822 35043 ft 491 kts 50°
2026-04-24 14:00 -16.86637 124.87575 35050 ft 491 kts 50°
2026-04-24 14:01 -16.82590 124.93323 35049 ft 491 kts 50°
2026-04-24 14:01 -16.78539 124.99072 35055 ft 491 kts 50°
2026-04-24 14:02 -16.74487 125.04817 35059 ft 491 kts 50°
2026-04-24 14:02 -16.70455 125.10530 35058 ft 492 kts 50°
2026-04-24 14:03 -16.66402 125.16268 35065 ft 490 kts 51°
2026-04-24 14:03 -16.62356 125.21991 35063 ft 490 kts 51°
2026-04-24 14:04 -16.58310 125.27699 35071 ft 489 kts 51°
2026-04-24 14:04 -16.54262 125.33400 35066 ft 489 kts 51°
2026-04-24 14:05 -16.50220 125.39097 35072 ft 489 kts 51°
2026-04-24 14:05 -16.46180 125.44793 35070 ft 489 kts 51°
2026-04-24 14:06 -16.42131 125.50479 35074 ft 488 kts 50°
2026-04-24 14:06 -16.38070 125.56156 35080 ft 488 kts 50°
2026-04-24 14:07 -16.34016 125.61821 35081 ft 488 kts 50°
2026-04-24 14:07 -16.29988 125.67447 35080 ft 488 kts 50°
2026-04-24 14:08 -16.25934 125.73107 35077 ft 486 kts 50°
2026-04-24 14:08 -16.21895 125.78743 35081 ft 485 kts 50°
2026-04-24 14:09 -16.17849 125.84381 35088 ft 485 kts 50°
2026-04-24 14:09 -16.13805 125.90013 35084 ft 486 kts 50°
2026-04-24 14:10 -16.09756 125.95647 35085 ft 486 kts 50°
2026-04-24 14:10 -16.05738 126.01234 35085 ft 486 kts 50°
2026-04-24 14:11 -16.01681 126.06872 35079 ft 486 kts 50°
2026-04-24 14:12 -15.95596 126.15318 35079 ft 486 kts 50°
2026-04-24 14:12 -15.91535 126.20935 35080 ft 486 kts 50°
2026-04-24 14:13 -15.87472 126.26555 35073 ft 485 kts 50°
2026-04-24 14:13 -15.83422 126.32160 35078 ft 484 kts 50°
2026-04-24 14:14 -15.79403 126.37722 35070 ft 484 kts 50°
2026-04-24 14:14 -15.73328 126.46119 35074 ft 484 kts 50°
2026-04-24 14:15 -15.69278 126.51712 35072 ft 484 kts 50°
2026-04-24 14:15 -15.65227 126.57304 35069 ft 484 kts 50°
2026-04-24 14:16 -15.61204 126.62851 35067 ft 484 kts 50°
2026-04-24 14:17 -15.55129 126.71220 35066 ft 484 kts 50°
2026-04-24 14:17 -15.49055 126.79578 35059 ft 482 kts 51°
2026-04-24 14:18 -15.45030 126.85113 35061 ft 480 kts 50°
2026-04-24 14:18 -15.40996 126.90639 35064 ft 480 kts 50°
2026-04-24 14:19 -15.36967 126.96160 35064 ft 480 kts 50°
2026-04-24 14:19 -15.32939 127.01683 35057 ft 480 kts 51°
2026-04-24 14:20 -15.28932 127.07177 35059 ft 480 kts 51°
2026-04-24 14:20 -15.24905 127.12694 35056 ft 480 kts 50°
2026-04-24 14:21 -15.20875 127.18211 35053 ft 480 kts 50°
2026-04-24 14:21 -15.16840 127.23730 35054 ft 480 kts 50°
2026-04-24 14:22 -15.12835 127.29204 35054 ft 479 kts 51°
2026-04-24 14:23 -15.06813 127.37430 35048 ft 477 kts 51°
2026-04-24 14:23 -15.02801 127.42903 35043 ft 477 kts 51°
2026-04-24 14:24 -14.98790 127.48372 35042 ft 477 kts 51°
2026-04-24 14:24 -14.94775 127.53843 35041 ft 476 kts 51°
2026-04-24 14:25 -14.91445 127.58365 35035 ft 476 kts 51°
2026-04-24 14:25 -14.86760 127.64727 35031 ft 476 kts 51°
2026-04-24 14:26 -14.82773 127.70142 35031 ft 476 kts 51°
2026-04-24 14:26 -14.78765 127.75585 35026 ft 475 kts 51°
2026-04-24 14:27 -14.74757 127.81024 35029 ft 475 kts 51°
2026-04-24 14:27 -14.70751 127.86458 35020 ft 475 kts 51°
2026-04-24 14:28 -14.66768 127.91857 35015 ft 475 kts 51°
2026-04-24 14:28 -14.62762 127.97283 35018 ft 475 kts 51°
2026-04-24 14:29 -14.58757 128.02704 35011 ft 475 kts 51°
2026-04-24 14:29 -14.54746 128.08130 35010 ft 474 kts 51°
2026-04-24 14:30 -14.51416 128.12631 35018 ft 474 kts 51°
2026-04-24 14:30 -14.46733 128.18958 35010 ft 475 kts 51°
2026-04-24 14:31 -14.42726 128.24367 35008 ft 474 kts 50°
2026-04-24 14:31 -14.38720 128.29771 35003 ft 473 kts 51°
2026-04-24 14:32 -14.34738 128.35131 35005 ft 473 kts 50°
2026-04-24 14:32 -14.30732 128.40515 35002 ft 473 kts 50°
2026-04-24 14:33 -14.26723 128.45908 35000 ft 473 kts 50°
2026-04-24 14:33 -14.22713 128.51302 35000 ft 474 kts 51°
2026-04-24 14:34 -14.18702 128.56695 35004 ft 474 kts 50°
2026-04-24 14:34 -14.14697 128.62084 34999 ft 474 kts 51°
2026-04-24 14:35 -14.10699 128.67483 34996 ft 474 kts 51°
2026-04-24 14:35 -14.06735 128.72842 34995 ft 473 kts 50°
2026-04-24 14:36 -14.02743 128.78234 34999 ft 473 kts 51°
2026-04-24 14:36 -13.98745 128.83631 34996 ft 473 kts 51°
2026-04-24 14:37 -13.94750 128.89020 34996 ft 473 kts 50°
2026-04-24 14:37 -13.90743 128.94420 34996 ft 475 kts 51°
2026-04-24 14:38 -13.86753 128.99794 34995 ft 476 kts 51°
2026-04-24 14:38 -13.82731 129.05209 34996 ft 476 kts 51°
2026-04-24 14:39 -13.78709 129.10620 34998 ft 476 kts 51°
2026-04-24 14:39 -13.74680 129.16037 34993 ft 477 kts 51°
2026-04-24 14:40 -13.70635 129.21470 34993 ft 479 kts 51°
2026-04-24 14:40 -13.66606 129.26881 34998 ft 479 kts 51°
2026-04-24 14:41 -13.62553 129.32309 34997 ft 478 kts 51°
2026-04-24 14:41 -13.60560 129.34978 34843 ft 462 kts 51°
2026-04-24 14:41 -13.58628 129.37569 34562 ft 454 kts 51°
2026-04-24 14:41 -13.56713 129.40133 34172 ft 451 kts 51°
2026-04-24 14:42 -13.55420 129.41865 33761 ft 453 kts 51°
2026-04-24 14:42 -13.53500 129.44435 33177 ft 453 kts 51°
2026-04-24 14:42 -13.51603 129.46975 32624 ft 455 kts 51°
2026-04-24 14:42 -13.49665 129.49569 32091 ft 459 kts 51°
2026-04-24 14:43 -13.47715 129.52178 31541 ft 462 kts 51°
2026-04-24 14:43 -13.45748 129.54809 30996 ft 465 kts 51°
2026-04-24 14:43 -13.43775 129.57449 30445 ft 467 kts 51°
2026-04-24 14:43 -13.41792 129.60101 29871 ft 470 kts 52°
2026-04-24 14:44 -13.39800 129.62764 29243 ft 470 kts 52°
2026-04-24 14:44 -13.37803 129.65433 28678 ft 471 kts 52°
2026-04-24 14:44 -13.35809 129.68098 28100 ft 471 kts 52°
2026-04-24 14:44 -13.33812 129.70765 27544 ft 471 kts 52°
2026-04-24 14:45 -13.31819 129.73426 26987 ft 470 kts 52°
2026-04-24 14:45 -13.29820 129.76095 26425 ft 470 kts 52°
2026-04-24 14:45 -13.27826 129.78756 25877 ft 469 kts 52°
2026-04-24 14:45 -13.25810 129.81361 25320 ft 464 kts 51°
2026-04-24 14:46 -13.23821 129.83939 24859 ft 455 kts 56°
2026-04-24 14:46 -13.22266 129.86732 24707 ft 450 kts 68°
2026-04-24 14:46 -13.21365 129.89791 24536 ft 448 kts 81°
2026-04-24 14:46 -13.21171 129.92929 24376 ft 447 kts 93°
2026-04-24 14:47 -13.21626 129.96072 24214 ft 445 kts 104°
2026-04-24 14:47 -13.22670 129.99065 24047 ft 445 kts 115°
2026-04-24 14:47 -13.24239 130.01802 23888 ft 447 kts 126°
2026-04-24 14:47 -13.26278 130.04194 23726 ft 446 kts 136°
2026-04-24 14:48 -13.28724 130.06157 23563 ft 446 kts 147°
2026-04-24 14:48 -13.31480 130.07612 23372 ft 447 kts 158°
2026-04-24 14:48 -13.34461 130.08511 23181 ft 447 kts 168°
2026-04-24 14:48 -13.37552 130.08819 22987 ft 447 kts 179°
2026-04-24 14:49 -13.40645 130.08525 22797 ft 447 kts 190°
2026-04-24 14:49 -13.43635 130.07640 22613 ft 448 kts 201°
2026-04-24 14:49 -13.46405 130.06195 22430 ft 448 kts 212°
2026-04-24 14:49 -13.48866 130.04237 22239 ft 448 kts 223°
2026-04-24 14:50 -13.50941 130.01853 22063 ft 447 kts 232°
2026-04-24 14:50 -13.52746 129.99257 21873 ft 446 kts 236°
2026-04-24 14:50 -13.54447 129.96599 21695 ft 445 kts 236°
2026-04-24 14:50 -13.56134 129.93930 21497 ft 444 kts 236°
2026-04-24 14:51 -13.57828 129.91289 21326 ft 442 kts 236°
2026-04-24 14:51 -13.59497 129.88632 21140 ft 441 kts 238°
2026-04-24 14:51 -13.60904 129.85835 20969 ft 441 kts 247°
2026-04-24 14:51 -13.61816 129.82878 20790 ft 440 kts 258°
2026-04-24 14:52 -13.62139 129.79762 20609 ft 439 kts 270°
2026-04-24 14:52 -13.61843 129.76643 20438 ft 439 kts 282°
2026-04-24 14:52 -13.60962 129.73646 20245 ft 437 kts 293°
2026-04-24 14:52 -13.59555 129.70888 20083 ft 436 kts 304°
2026-04-24 14:53 -13.57677 129.68448 19903 ft 434 kts 315°
2026-04-24 14:53 -13.55412 129.66418 19738 ft 432 kts 326°
2026-04-24 14:53 -13.52829 129.64850 19562 ft 430 kts 336°
2026-04-24 14:53 -13.50026 129.63795 19401 ft 427 kts 347°
2026-04-24 14:54 -13.47106 129.63282 19230 ft 425 kts 357°
2026-04-24 14:54 -13.44158 129.63314 19057 ft 422 kts
2026-04-24 14:54 -13.41294 129.63878 18891 ft 418 kts 18°
2026-04-24 14:54 -13.38584 129.64946 18726 ft 415 kts 28°
2026-04-24 14:55 -13.36924 129.65906 18614 ft 414 kts 34°
2026-04-24 14:55 -13.33986 129.68384 18410 ft 401 kts 48°
2026-04-24 14:55 -13.32190 129.70615 18374 ft 407 kts 55°
2026-04-24 14:55 -13.30588 129.72968 18361 ft 408 kts 57°
2026-04-24 14:56 -13.29020 129.75395 18358 ft 408 kts 58°
2026-04-24 14:56 -13.27458 129.77821 18358 ft 408 kts 57°
2026-04-24 14:56 -13.25876 129.80246 18360 ft 408 kts 57°
2026-04-24 14:56 -13.24300 129.82666 18369 ft 408 kts 58°
2026-04-24 14:57 -13.22887 129.85196 18362 ft 408 kts 65°
2026-04-24 14:57 -13.21857 129.87896 18361 ft 407 kts 75°
2026-04-24 14:57 -13.21323 129.90738 18372 ft 406 kts 85°
2026-04-24 14:57 -13.21316 129.93638 18359 ft 406 kts 96°
2026-04-24 14:58 -13.21821 129.96482 18361 ft 406 kts 105°
2026-04-24 14:58 -13.22808 129.99196 18359 ft 406 kts 115°
2026-04-24 14:58 -13.24240 130.01697 18370 ft 407 kts 125°
2026-04-24 14:58 -13.26075 130.03913 18360 ft 408 kts 135°
2026-04-24 14:59 -13.28259 130.05773 18365 ft 410 kts 144°
2026-04-24 14:59 -13.30701 130.07208 18363 ft 411 kts 154°
2026-04-24 14:59 -13.33431 130.08215 18364 ft 413 kts 164°
2026-04-24 14:59 -13.36223 130.08708 18370 ft 414 kts 174°
2026-04-24 15:00 -13.39107 130.08696 18365 ft 416 kts 184°
2026-04-24 15:00 -13.41959 130.08164 18365 ft 417 kts 194°
2026-04-24 15:00 -13.44680 130.07122 18367 ft 419 kts 205°
2026-04-24 15:00 -13.47192 130.05597 18363 ft 420 kts 215°
2026-04-24 15:01 -13.49405 130.03632 18374 ft 422 kts 225°
2026-04-24 15:01 -13.51286 130.01311 18368 ft 423 kts 233°
2026-04-24 15:01 -13.52969 129.98830 18365 ft 424 kts 235°
2026-04-24 15:01 -13.54595 129.96292 18364 ft 424 kts 236°
2026-04-24 15:02 -13.56215 129.93756 18360 ft 424 kts 236°
2026-04-24 15:02 -13.57851 129.91233 18371 ft 424 kts 235°
2026-04-24 15:02 -13.59440 129.88727 18364 ft 424 kts 238°
2026-04-24 15:02 -13.60817 129.86043 18371 ft 425 kts 246°
2026-04-24 15:03 -13.61746 129.83163 18373 ft 425 kts 257°
2026-04-24 15:03 -13.62116 129.80155 18371 ft 425 kts 269°
2026-04-24 15:03 -13.61906 129.77119 18360 ft 425 kts 280°
2026-04-24 15:03 -13.61140 129.74177 18364 ft 425 kts 291°
2026-04-24 15:04 -13.59866 129.71441 18359 ft 425 kts 302°
2026-04-24 15:04 -13.58135 129.68989 18358 ft 424 kts 312°
2026-04-24 15:04 -13.56003 129.66898 18359 ft 423 kts 323°
2026-04-24 15:04 -13.53548 129.65236 18363 ft 423 kts 333°
2026-04-24 15:05 -13.50844 129.64054 18363 ft 421 kts 344°
2026-04-24 15:05 -13.47992 129.63389 18357 ft 419 kts 354°
2026-04-24 15:05 -13.45131 129.63148 18365 ft 419 kts 355°
2026-04-24 15:05 -13.42286 129.62473 18302 ft 418 kts 343°
2026-04-24 15:06 -13.39558 129.61470 17225 ft 416 kts 341°
2026-04-24 15:06 -13.36838 129.60503 16319 ft 410 kts 343°
2026-04-24 15:06 -13.34204 129.59609 16087 ft 387 kts 341°
2026-04-24 15:06 -13.31697 129.58860 16058 ft 375 kts 353°
2026-04-24 15:07 -13.29025 129.58912 16061 ft 396 kts 12°
2026-04-24 15:07 -13.26395 129.59839 16064 ft 399 kts 30°
2026-04-24 15:07 -13.24173 129.61515 16069 ft 397 kts 47°
2026-04-24 15:07 -13.22553 129.63786 16068 ft 395 kts 64°
2026-04-24 15:08 -13.21553 129.66408 16071 ft 395 kts 73°
2026-04-24 15:08 -13.20815 129.69121 16073 ft 395 kts 76°
2026-04-24 15:08 -13.20144 129.71854 16073 ft 394 kts 77°
2026-04-24 15:08 -13.19492 129.74590 16073 ft 395 kts 77°
2026-04-24 15:09 -13.18844 129.77329 16075 ft 395 kts 77°
2026-04-24 15:09 -13.18196 129.80063 16073 ft 395 kts 76°
2026-04-24 15:09 -13.17463 129.82749 16077 ft 395 kts 72°
2026-04-24 15:09 -13.16480 129.85383 16078 ft 396 kts 66°
2026-04-24 15:10 -13.15267 129.87925 16079 ft 396 kts 63°
2026-04-24 15:10 -13.13901 129.90382 16078 ft 397 kts 60°
2026-04-24 15:10 -13.12446 129.92784 16078 ft 397 kts 58°
2026-04-24 15:10 -13.10942 129.95165 16076 ft 397 kts 57°
2026-04-24 15:11 -13.09421 129.97527 16077 ft 397 kts 57°
2026-04-24 15:11 -13.07891 129.99889 16076 ft 397 kts 57°
2026-04-24 15:11 -13.06359 130.02247 16072 ft 397 kts 57°
2026-04-24 15:11 -13.04829 130.04606 16073 ft 398 kts 57°
2026-04-24 15:12 -13.03290 130.06978 16077 ft 399 kts 57°
2026-04-24 15:12 -13.00201 130.11742 15654 ft 402 kts 57°
2026-04-24 15:12 -12.98666 130.14111 15142 ft 397 kts 57°
2026-04-24 15:13 -12.97143 130.16459 14636 ft 394 kts 57°
2026-04-24 15:13 -12.95629 130.18793 14144 ft 392 kts 57°
2026-04-24 15:13 -12.94140 130.21090 13635 ft 391 kts 57°
2026-04-24 15:13 -12.92637 130.23406 13106 ft 389 kts 57°
2026-04-24 15:14 -12.91146 130.25706 12598 ft 385 kts 56°
2026-04-24 15:14 -12.89669 130.27981 12109 ft 382 kts 56°
2026-04-24 15:14 -12.88205 130.30235 11627 ft 378 kts 56°
2026-04-24 15:14 -12.86757 130.32460 11240 ft 371 kts 56°
2026-04-24 15:15 -12.85330 130.34650 11069 ft 363 kts 56°
2026-04-24 15:15 -12.83973 130.36735 10936 ft 340 kts 56°
2026-04-24 15:15 -12.82704 130.38686 10827 ft 319 kts 56°
2026-04-24 15:15 -12.81513 130.40518 10700 ft 300 kts 56°
2026-04-24 15:16 -12.80382 130.42257 10582 ft 290 kts 56°
2026-04-24 15:16 -12.79260 130.43981 10407 ft 291 kts 55°
2026-04-24 15:16 -12.78138 130.45705 10030 ft 291 kts 55°
2026-04-24 15:16 -12.77019 130.47425 9535 ft 289 kts 55°
2026-04-24 15:17 -12.75910 130.49127 9080 ft 285 kts 56°
2026-04-24 15:17 -12.74820 130.50801 8636 ft 281 kts 56°
2026-04-24 15:17 -12.73756 130.52435 8213 ft 278 kts 56°
2026-04-24 15:17 -12.72692 130.54069 7799 ft 274 kts 57°
2026-04-24 15:18 -12.71640 130.55683 7438 ft 271 kts 57°
2026-04-24 15:18 -12.70602 130.57277 7064 ft 268 kts 57°
2026-04-24 15:18 -12.69569 130.58863 6703 ft 266 kts 58°
2026-04-24 15:18 -12.68545 130.60433 6327 ft 264 kts 58°
2026-04-24 15:19 -12.67529 130.61994 5943 ft 262 kts 58°
2026-04-24 15:19 -12.66523 130.63536 5573 ft 258 kts 58°
2026-04-24 15:19 -12.65534 130.65054 5229 ft 254 kts 58°
2026-04-24 15:19 -12.64559 130.66550 4930 ft 251 kts 59°
2026-04-24 15:20 -12.63593 130.68031 4618 ft 250 kts 59°
2026-04-24 15:20 -12.62631 130.69508 4300 ft 249 kts 59°
2026-04-24 15:20 -12.61677 130.70971 4002 ft 248 kts 59°
2026-04-24 15:20 -12.60724 130.72433 3685 ft 246 kts 59°
2026-04-24 15:21 -12.59775 130.73888 3384 ft 244 kts 58°
2026-04-24 15:21 -12.58843 130.75314 3093 ft 238 kts 59°
2026-04-24 15:21 -12.57950 130.76681 3002 ft 223 kts 59°
2026-04-24 15:21 -12.57090 130.77998 2999 ft 226 kts 59°
2026-04-24 15:22 -12.56223 130.79329 2991 ft 224 kts 59°
2026-04-24 15:22 -12.55356 130.80658 2994 ft 224 kts 59°
2026-04-24 15:22 -12.54491 130.81984 2989 ft 224 kts 59°
2026-04-24 15:23 -12.52756 130.84641 2990 ft 225 kts 59°
2026-04-24 15:23 -12.50609 130.86994 2561 ft 230 kts 36°
2026-04-24 15:23 -12.49104 130.87450 1810 ft 234 kts
2026-04-24 15:24 -12.44734 130.86906 591 ft 174 kts
2026-04-24 15:25 -12.42832 130.86899 406 ft 185 kts
2026-04-24 15:25 -12.39744 130.86919 1679 ft 192 kts
2026-04-24 15:26 -12.35445 130.86604 3161 ft 214 kts
2026-04-24 15:27 -12.31785 130.88188 4394 ft 197 kts 73°
2026-04-24 15:27 -12.34116 130.91060 4308 ft 225 kts 171°
2026-04-24 15:28 -12.39781 130.91547 3331 ft 216 kts 214°
2026-04-24 15:29 -12.40445 130.88583 2394 ft 224 kts 288°
2026-04-24 15:30 -12.39135 130.84403 1315 ft 184 kts 300°
2026-04-24 15:31 -12.37148 130.79578 1476 ft 208 kts 264°
2026-04-24 15:32 -12.40865 130.78119 1572 ft 167 kts 114°
2026-04-24 15:33 -12.39891 130.82388 1057 ft 171 kts 91°
2026-04-24 15:33 -12.40639 130.85693 278 ft 143 kts 109°
2026-04-24 15:34 -12.41262 130.87494 109 ft 83 kts 109°
2026-04-24 15:35 -12.41557 130.88386 102 ft 13 kts 110°
2026-04-24 15:35 -12.41639 130.88433 101 ft 9 kts 185°
2026-04-24 15:35 -12.41514 130.86638 106 ft 0 kts 267°
2026-04-24 15:46 -12.41514 130.86639 106 ft 0 kts 267°
2026-04-24 15:58 -12.41514 130.86640 106 ft 0 kts 267°